Time,TemperatureF,DewpointF,PressureIn,WindDirection,WindDirectionDegrees,WindSpeedMPH,WindSpeedGustMPH,Humidity,HourlyPrecipIn,Conditions,Clouds,dailyrainin,SoftwareType,DateUTC
2013-12-29 00:04:00,29.1,26.8,30.09,WSW,254,0.0,0.0,91,0.00,,,0.00,Wunderground v.1.15,2013-12-29 05:04:00,
2013-12-29 00:09:00,29.2,27.2,30.09,WSW,254,0.0,0.0,92,0.00,,,0.00,Wunderground v.1.15,2013-12-29 05:09:00,
2013-12-29 00:14:00,29.2,26.9,30.09,WSW,254,0.0,0.0,91,0.00,,,0.00,Wunderground v.1.15,2013-12-29 05:14:00,
2013-12-29 00:24:00,29.1,26.8,30.09,WSW,254,0.0,0.0,91,0.00,,,0.00,Wunderground v.1.15,2013-12-29 05:24:00,
2013-12-29 00:29:00,29.0,26.7,30.09,WSW,254,0.0,0.0,91,0.00,,,0.00,Wunderground v.1.15,2013-12-29 05:29:00,
2013-12-29 00:39:00,28.9,26.6,30.08,WSW,254,0.0,0.0,91,0.00,,,0.00,Wunderground v.1.15,2013-12-29 05:39:00,
2013-12-29 00:44:00,28.9,26.6,30.08,WSW,254,0.0,0.0,91,0.00,,,0.00,Wunderground v.1.15,2013-12-29 05:44:00,
2013-12-29 00:54:00,29.1,27.1,30.08,WSW,254,0.0,0.0,92,0.00,,,0.00,Wunderground v.1.15,2013-12-29 05:54:00,
2013-12-29 00:59:00,29.2,27.2,30.08,WSW,254,0.0,0.0,92,0.00,,,0.00,Wunderground v.1.15,2013-12-29 05:59:00,
2013-12-29 01:04:00,29.6,27.8,30.08,WSW,254,0.0,0.0,93,0.00,,,0.00,Wunderground v.1.15,2013-12-29 06:04:00,
2013-12-29 01:09:00,29.6,27.6,30.08,WSW,254,0.0,0.0,92,0.00,,,0.00,Wunderground v.1.15,2013-12-29 06:09:00,
2013-12-29 01:14:00,29.5,27.2,30.08,WSW,254,0.0,0.0,91,0.00,,,0.00,Wunderground v.1.15,2013-12-29 06:14:00,
2013-12-29 01:24:00,29.2,26.9,30.08,WSW,254,0.0,0.0,91,0.00,,,0.00,Wunderground v.1.15,2013-12-29 06:24:00,
2013-12-29 01:29:00,29.4,27.4,30.08,WSW,254,0.0,0.0,92,0.00,,,0.00,Wunderground v.1.15,2013-12-29 06:29:00,
2013-12-29 01:39:00,29.7,27.7,30.08,WSW,254,0.0,0.0,92,0.00,,,0.00,Wunderground v.1.15,2013-12-29 06:39:00,
2013-12-29 01:44:00,29.9,28.1,30.08,WSW,254,0.0,0.0,93,0.00,,,0.00,Wunderground v.1.15,2013-12-29 06:44:00,
2013-12-29 01:54:00,29.9,27.9,30.09,WSW,254,0.0,0.0,92,0.00,,,0.00,Wunderground v.1.15,2013-12-29 06:54:00,
2013-12-29 01:59:00,29.9,27.6,30.09,WSW,254,0.0,0.0,91,0.00,,,0.00,Wunderground v.1.15,2013-12-29 06:59:00,
2013-12-29 02:09:00,29.7,27.4,30.09,WSW,254,0.0,0.0,91,0.00,,,0.00,Wunderground v.1.15,2013-12-29 07:09:00,
2013-12-29 02:14:00,29.7,27.4,30.09,WSW,254,0.0,0.0,91,0.00,,,0.00,Wunderground v.1.15,2013-12-29 07:14:00,
2013-12-29 02:24:00,29.6,27.3,30.09,WSW,254,0.0,0.0,91,0.00,,,0.00,Wunderground v.1.15,2013-12-29 07:24:00,
2013-12-29 02:29:00,29.6,27.3,30.08,WSW,254,0.0,0.0,91,0.00,,,0.00,Wunderground v.1.15,2013-12-29 07:29:00,
2013-12-29 02:39:00,29.8,27.8,30.08,WSW,254,0.0,0.0,92,0.00,,,0.00,Wunderground v.1.15,2013-12-29 07:39:00,
2013-12-29 02:44:00,29.9,27.9,30.08,WSW,254,0.0,0.0,92,0.00,,,0.00,Wunderground v.1.15,2013-12-29 07:44:00,
2013-12-29 02:54:00,30.1,28.3,30.07,WSW,254,0.0,0.0,93,0.00,,,0.00,Wunderground v.1.15,2013-12-29 07:54:00,
2013-12-29 02:59:00,30.3,28.3,30.06,WSW,254,0.0,0.0,92,0.00,,,0.00,Wunderground v.1.15,2013-12-29 07:59:00,
2013-12-29 03:09:00,30.5,28.5,30.07,WSW,254,0.0,0.0,92,0.00,,,0.00,Wunderground v.1.15,2013-12-29 08:09:00,
2013-12-29 03:14:00,30.7,28.9,30.07,WSW,254,0.0,0.0,93,0.00,,,0.00,Wunderground v.1.15,2013-12-29 08:14:00,
2013-12-29 03:24:00,30.9,28.9,30.06,WSW,254,0.0,0.0,92,0.00,,,0.00,Wunderground v.1.15,2013-12-29 08:24:00,
2013-12-29 03:29:00,30.8,28.5,30.07,WSW,254,0.0,0.0,91,0.00,,,0.00,Wunderground v.1.15,2013-12-29 08:29:00,
2013-12-29 03:39:00,30.6,28.3,30.07,WSW,254,0.0,0.0,91,0.00,,,0.00,Wunderground v.1.15,2013-12-29 08:39:00,
2013-12-29 03:44:00,30.6,28.3,30.07,WSW,254,0.0,0.0,91,0.00,,,0.00,Wunderground v.1.15,2013-12-29 08:44:00,
2013-12-29 03:54:00,30.8,29.0,30.06,WSW,254,0.0,0.0,93,0.00,,,0.00,Wunderground v.1.15,2013-12-29 08:54:00,
2013-12-29 03:59:00,31.0,29.2,30.06,WSW,254,0.0,0.0,93,0.00,,,0.00,Wunderground v.1.15,2013-12-29 08:59:00,
2013-12-29 04:09:00,31.1,29.0,30.06,WSW,254,0.0,0.0,92,0.00,,,0.00,Wunderground v.1.15,2013-12-29 09:09:00,
2013-12-29 04:14:00,31.2,29.1,30.06,WSW,254,0.0,0.0,92,0.00,,,0.00,Wunderground v.1.15,2013-12-29 09:14:00,
2013-12-29 04:24:00,31.7,29.6,30.05,WSW,254,0.0,0.0,92,0.00,,,0.00,Wunderground v.1.15,2013-12-29 09:24:00,
2013-12-29 04:29:00,31.4,29.1,30.04,WSW,254,0.0,0.0,91,0.00,,,0.00,Wunderground v.1.15,2013-12-29 09:29:00,
2013-12-29 04:39:00,31.2,28.9,30.04,WSW,254,0.0,0.0,91,0.00,,,0.00,Wunderground v.1.15,2013-12-29 09:39:00,
2013-12-29 04:44:00,31.3,29.2,30.04,WSW,254,0.0,0.0,92,0.00,,,0.00,Wunderground v.1.15,2013-12-29 09:44:00,
2013-12-29 04:54:00,32.0,30.2,30.03,WSW,254,0.0,0.0,93,0.00,,,0.00,Wunderground v.1.15,2013-12-29 09:54:00,
2013-12-29 04:59:00,31.8,29.5,30.03,WSW,254,0.0,0.0,91,0.00,,,0.00,Wunderground v.1.15,2013-12-29 09:59:00,
2013-12-29 05:09:00,31.4,29.1,30.02,WSW,254,0.0,0.0,91,0.00,,,0.00,Wunderground v.1.15,2013-12-29 10:09:00,
2013-12-29 05:14:00,31.3,29.0,30.02,WSW,254,0.0,0.0,91,0.00,,,0.00,Wunderground v.1.15,2013-12-29 10:14:00,
2013-12-29 05:23:00,31.5,29.4,30.02,WSW,254,0.0,0.0,92,0.00,,,0.00,Wunderground v.1.15,2013-12-29 10:23:00,
2013-12-29 05:29:00,31.4,29.1,30.02,WSW,254,0.0,0.0,91,0.00,,,0.00,Wunderground v.1.15,2013-12-29 10:29:00,
2013-12-29 05:38:00,31.3,29.0,30.02,WSW,254,0.0,0.0,91,0.00,,,0.00,Wunderground v.1.15,2013-12-29 10:38:00,
2013-12-29 05:44:00,31.4,29.3,30.02,WSW,254,0.0,0.0,92,0.00,,,0.00,Wunderground v.1.15,2013-12-29 10:44:00,
2013-12-29 05:53:00,31.7,29.6,30.01,WSW,254,0.0,0.0,92,0.00,,,0.00,Wunderground v.1.15,2013-12-29 10:53:00,
2013-12-29 05:59:00,31.6,29.3,30.01,WSW,254,0.0,0.0,91,0.00,,,0.00,Wunderground v.1.15,2013-12-29 10:59:00,
2013-12-29 06:09:00,31.6,29.3,30.01,WSW,254,0.0,0.0,91,0.00,,,0.00,Wunderground v.1.15,2013-12-29 11:09:00,
2013-12-29 06:14:00,31.7,29.6,30.01,WSW,254,0.0,0.0,92,0.00,,,0.00,Wunderground v.1.15,2013-12-29 11:14:00,
2013-12-29 06:24:00,32.1,30.0,30.01,WSW,254,0.0,0.0,92,0.00,,,0.00,Wunderground v.1.15,2013-12-29 11:24:00,
2013-12-29 06:29:00,32.1,29.8,30.02,WSW,254,0.0,0.0,91,0.00,,,0.00,Wunderground v.1.15,2013-12-29 11:29:00,
2013-12-29 06:39:00,32.0,29.7,30.01,WSW,254,0.0,0.0,91,0.00,,,0.00,Wunderground v.1.15,2013-12-29 11:39:00,
2013-12-29 06:44:00,32.1,30.0,30.01,WSW,254,0.0,0.0,92,0.00,,,0.00,Wunderground v.1.15,2013-12-29 11:44:00,
2013-12-29 06:53:00,32.2,29.9,30.02,WSW,254,0.0,0.0,91,0.00,,,0.00,Wunderground v.1.15,2013-12-29 11:53:00,
2013-12-29 06:59:00,32.3,30.0,30.02,WSW,254,0.0,0.0,91,0.00,,,0.00,Wunderground v.1.15,2013-12-29 11:59:00,
2013-12-29 07:08:00,32.5,30.2,30.02,WSW,254,0.0,0.0,91,0.00,,,0.00,Wunderground v.1.15,2013-12-29 12:08:00,
2013-12-29 07:14:00,32.5,30.2,30.03,WSW,254,0.0,0.0,91,0.00,,,0.00,Wunderground v.1.15,2013-12-29 12:14:00,
2013-12-29 07:23:00,32.5,30.2,30.03,WSW,254,0.0,0.0,91,0.00,,,0.00,Wunderground v.1.15,2013-12-29 12:23:00,
2013-12-29 07:29:00,32.4,30.1,30.03,WSW,254,0.0,0.0,91,0.00,,,0.00,Wunderground v.1.15,2013-12-29 12:29:00,
2013-12-29 07:38:00,32.3,30.0,30.03,WSW,254,0.0,0.0,91,0.00,,,0.00,Wunderground v.1.15,2013-12-29 12:38:00,
2013-12-29 07:44:00,32.4,30.3,30.04,WSW,254,0.0,0.0,92,0.00,,,0.00,Wunderground v.1.15,2013-12-29 12:44:00,
2013-12-29 07:53:00,32.5,30.4,30.04,WSW,254,0.0,0.0,92,0.00,,,0.00,Wunderground v.1.15,2013-12-29 12:53:00,
2013-12-29 07:59:00,32.6,30.3,30.04,WSW,254,0.0,0.0,91,0.00,,,0.00,Wunderground v.1.15,2013-12-29 12:59:00,
2013-12-29 08:08:00,32.6,30.3,30.03,WSW,254,0.0,0.0,91,0.00,,,0.00,Wunderground v.1.15,2013-12-29 13:08:00,
2013-12-29 08:14:00,32.7,30.4,30.02,WSW,254,0.0,0.0,91,0.00,,,0.00,Wunderground v.1.15,2013-12-29 13:14:00,
2013-12-29 08:23:00,32.7,30.4,30.02,WSW,254,0.0,0.0,91,0.00,,,0.00,Wunderground v.1.15,2013-12-29 13:23:00,
2013-12-29 08:29:00,32.8,30.5,30.02,WSW,254,0.0,0.0,91,0.00,,,0.00,Wunderground v.1.15,2013-12-29 13:29:00,
2013-12-29 08:38:00,33.1,30.8,30.01,WSW,254,0.0,0.0,91,0.00,,,0.00,Wunderground v.1.15,2013-12-29 13:38:00,
2013-12-29 08:43:00,33.2,30.9,30.01,WSW,254,0.0,0.0,91,0.00,,,0.00,Wunderground v.1.15,2013-12-29 13:43:00,
2013-12-29 08:53:00,33.8,32.0,30.01,WSW,254,0.0,0.0,93,0.00,,,0.00,Wunderground v.1.15,2013-12-29 13:53:00,
2013-12-29 08:59:00,34.1,32.0,30.01,WSW,254,0.0,0.0,92,0.00,,,0.00,Wunderground v.1.15,2013-12-29 13:59:00,
2013-12-29 09:08:00,34.1,31.5,30.02,WSW,254,0.0,0.0,90,0.00,,,0.00,Wunderground v.1.15,2013-12-29 14:08:00,
2013-12-29 09:13:00,34.2,31.3,30.01,WSW,254,0.0,0.0,89,0.00,,,0.00,Wunderground v.1.15,2013-12-29 14:13:00,
2013-12-29 09:23:00,34.4,31.5,30.01,WSW,254,0.0,1.0,89,0.00,,,0.00,Wunderground v.1.15,2013-12-29 14:23:00,
2013-12-29 09:28:00,34.5,31.6,30.00,WSW,254,0.0,0.0,89,0.00,,,0.00,Wunderground v.1.15,2013-12-29 14:28:00,
2013-12-29 09:38:00,34.9,32.0,30.00,WSW,254,0.0,0.0,89,0.00,,,0.00,Wunderground v.1.15,2013-12-29 14:38:00,
2013-12-29 09:43:00,35.1,32.2,29.99,WSW,254,0.0,0.0,89,0.00,,,0.00,Wunderground v.1.15,2013-12-29 14:43:00,
2013-12-29 09:53:00,35.5,32.3,29.98,WSW,254,0.0,0.0,88,0.00,,,0.00,Wunderground v.1.15,2013-12-29 14:53:00,
2013-12-29 09:59:00,35.6,32.4,29.98,WSW,254,0.0,0.0,88,0.00,,,0.00,Wunderground v.1.15,2013-12-29 14:59:00,
2013-12-29 10:08:00,35.8,32.6,29.97,WSW,254,0.0,0.0,88,0.00,,,0.00,Wunderground v.1.15,2013-12-29 15:08:00,
2013-12-29 10:14:00,35.9,33.0,29.97,WSW,254,0.0,0.0,89,0.00,,,0.00,Wunderground v.1.15,2013-12-29 15:14:00,
2013-12-29 10:23:00,36.0,33.1,29.97,WSW,254,0.0,0.0,89,0.00,,,0.00,Wunderground v.1.15,2013-12-29 15:23:00,
2013-12-29 10:29:00,36.0,33.4,29.96,WSW,254,0.0,0.0,90,0.00,,,0.01,Wunderground v.1.15,2013-12-29 15:29:00,
2013-12-29 10:38:00,36.0,33.9,29.96,WSW,254,0.0,0.0,92,0.00,,,0.01,Wunderground v.1.15,2013-12-29 15:38:00,
2013-12-29 13:39:00,37.4,36.4,29.67,NE,52,2.0,2.0,96,0.16,,,0.33,Wunderground v.1.15,2013-12-29 18:39:00,
2013-12-29 13:45:00,37.5,36.5,29.66,NNE,13,3.0,3.0,96,0.19,,,0.35,Wunderground v.1.15,2013-12-29 18:45:00,
2013-12-29 13:55:00,37.6,36.6,29.65,NE,56,2.0,2.0,96,0.15,,,0.38,Wunderground v.1.15,2013-12-29 18:55:00,
2013-12-29 14:00:00,37.6,36.6,29.64,NE,54,3.0,3.0,96,0.26,,,0.40,Wunderground v.1.15,2013-12-29 19:00:00,
2013-12-29 14:10:00,37.8,36.8,29.62,NNE,28,2.0,3.0,96,0.41,,,0.47,Wunderground v.1.15,2013-12-29 19:10:00,
2013-12-29 14:15:00,37.9,36.9,29.62,NNE,13,3.0,3.0,96,0.11,,,0.47,Wunderground v.1.15,2013-12-29 19:15:00,
2013-12-29 14:24:00,38.2,37.2,29.60,NE,38,3.0,4.0,96,0.28,,,0.51,Wunderground v.1.15,2013-12-29 19:24:00,
2013-12-29 14:30:00,38.2,37.4,29.60,ENE,64,3.0,4.0,97,0.28,,,0.53,Wunderground v.1.15,2013-12-29 19:30:00,
2013-12-29 14:39:00,38.3,37.5,29.60,NE,36,3.0,3.0,97,0.16,,,0.56,Wunderground v.1.15,2013-12-29 19:39:00,
2013-12-29 14:45:00,38.2,37.4,29.59,NE,45,3.0,3.0,97,0.20,,,0.57,Wunderground v.1.15,2013-12-29 19:45:00,
2013-12-29 14:54:00,38.3,37.5,29.58,NNE,21,2.0,2.0,97,0.12,,,0.60,Wunderground v.1.15,2013-12-29 19:54:00,
2013-12-29 15:00:00,38.2,37.4,29.57,NE,43,3.0,3.0,97,0.10,,,0.60,Wunderground v.1.15,2013-12-29 20:00:00,
2013-12-29 15:09:00,38.3,37.5,29.57,NE,56,2.0,3.0,97,0.10,,,0.62,Wunderground v.1.15,2013-12-29 20:09:00,
2013-12-29 15:19:00,38.4,37.6,29.56,WNW,292,3.0,3.0,97,0.08,,,0.64,Wunderground v.1.15,2013-12-29 20:19:00,
2013-12-29 15:25:00,38.4,37.6,29.56,North,5,2.0,3.0,97,0.17,,,0.65,Wunderground v.1.15,2013-12-29 20:25:00,
2013-12-29 15:30:00,38.5,37.7,29.56,NNE,28,1.0,1.0,97,0.20,,,0.68,Wunderground v.1.15,2013-12-29 20:30:00,
2013-12-29 15:39:00,38.5,37.7,29.54,NE,34,2.0,5.0,97,0.30,,,0.71,Wunderground v.1.15,2013-12-29 20:39:00,
2013-12-29 15:45:00,38.4,37.6,29.53,NE,49,3.0,5.0,97,0.10,,,0.72,Wunderground v.1.15,2013-12-29 20:45:00,
2013-12-29 15:54:00,38.5,37.7,29.53,NE,54,3.0,4.0,97,0.15,,,0.76,Wunderground v.1.15,2013-12-29 20:54:00,
2013-12-29 16:00:00,38.5,37.7,29.53,WNW,292,3.0,3.0,97,0.17,,,0.77,Wunderground v.1.15,2013-12-29 21:00:00,
2013-12-29 16:10:00,38.7,37.9,29.51,ENE,65,3.0,4.0,97,0.11,,,0.79,Wunderground v.1.15,2013-12-29 21:10:00,
2013-12-29 16:15:00,38.8,38.0,29.53,West,276,4.0,4.0,97,0.12,,,0.80,Wunderground v.1.15,2013-12-29 21:15:00,
2013-12-29 16:25:00,38.9,38.1,29.53,ESE,103,2.0,2.0,97,0.06,,,0.80,Wunderground v.1.15,2013-12-29 21:25:00,
2013-12-29 16:30:00,39.1,38.3,29.54,WNW,298,2.0,3.0,97,0.06,,,0.81,Wunderground v.1.15,2013-12-29 21:30:00,
2013-12-29 16:40:00,39.7,38.9,29.54,North,5,2.0,3.0,97,0.11,,,0.83,Wunderground v.1.15,2013-12-29 21:40:00,
2013-12-29 16:49:00,40.0,39.2,29.54,West,263,2.0,2.0,97,0.08,,,0.84,Wunderground v.1.15,2013-12-29 21:49:00,
2013-12-29 16:55:00,40.1,39.3,29.52,NE,53,2.0,2.0,97,0.05,,,0.84,Wunderground v.1.15,2013-12-29 21:55:00,
2013-12-29 17:04:00,40.1,39.3,29.52,North,355,1.0,2.0,97,0.00,,,0.84,Wunderground v.1.15,2013-12-29 22:04:00,
2013-12-29 17:14:00,39.7,38.9,29.51,ENE,63,2.0,3.0,97,0.00,,,0.85,Wunderground v.1.15,2013-12-29 22:14:00,
2013-12-29 17:24:00,39.5,38.7,29.51,NE,48,1.0,2.0,97,0.00,,,0.85,Wunderground v.1.15,2013-12-29 22:24:00,
2013-12-29 17:29:00,39.5,38.7,29.52,ENE,57,1.0,1.0,97,0.00,,,0.85,Wunderground v.1.15,2013-12-29 22:29:00,
2013-12-29 17:39:00,39.4,38.6,29.51,NE,50,1.0,1.0,97,0.00,,,0.85,Wunderground v.1.15,2013-12-29 22:39:00,
2013-12-29 17:44:00,39.4,38.6,29.51,NE,51,2.0,2.0,97,0.00,,,0.85,Wunderground v.1.15,2013-12-29 22:44:00,
2013-12-29 17:54:00,39.4,38.6,29.51,NNE,31,2.0,2.0,97,0.00,,,0.85,Wunderground v.1.15,2013-12-29 22:54:00,
2013-12-29 17:59:00,39.4,38.6,29.51,NE,52,2.0,2.0,97,0.00,,,0.85,Wunderground v.1.15,2013-12-29 22:59:00,
2013-12-29 18:09:00,39.6,38.8,29.53,North,360,1.0,1.0,97,0.00,,,0.85,Wunderground v.1.15,2013-12-29 23:09:00,
2013-12-29 18:15:00,39.7,38.9,29.53,ESE,112,0.0,2.0,97,0.00,,,0.85,Wunderground v.1.15,2013-12-29 23:15:00,
2013-12-29 18:24:00,39.5,38.7,29.55,SW,222,0.0,0.0,97,0.00,,,0.85,Wunderground v.1.15,2013-12-29 23:24:00,
2013-12-29 18:30:00,39.6,38.8,29.55,WSW,240,0.0,0.0,97,0.00,,,0.85,Wunderground v.1.15,2013-12-29 23:30:00,
2013-12-29 18:39:00,39.5,38.7,29.56,NE,54,1.0,2.0,97,0.00,,,0.85,Wunderground v.1.15,2013-12-29 23:39:00,
2013-12-29 18:45:00,39.5,38.7,29.57,North,9,1.0,2.0,97,0.00,,,0.85,Wunderground v.1.15,2013-12-29 23:45:00,
2013-12-29 18:54:00,39.6,38.8,29.57,WNW,291,1.0,3.0,97,0.00,,,0.85,Wunderground v.1.15,2013-12-29 23:54:00,
2013-12-29 19:00:00,39.6,38.8,29.58,NNE,15,1.0,4.0,97,0.00,,,0.85,Wunderground v.1.15,2013-12-30 00:00:00,
2013-12-29 19:09:00,39.7,38.7,29.59,North,355,1.0,2.0,96,0.00,,,0.85,Wunderground v.1.15,2013-12-30 00:09:00,
2013-12-29 19:15:00,39.8,38.8,29.59,NNW,333,1.0,3.0,96,0.00,,,0.85,Wunderground v.1.15,2013-12-30 00:15:00,
2013-12-29 19:25:00,39.9,38.9,29.60,NNW,344,1.0,1.0,96,0.00,,,0.85,Wunderground v.1.15,2013-12-30 00:25:00,
2013-12-29 19:30:00,40.0,39.0,29.60,NNW,344,2.0,3.0,96,0.00,,,0.85,Wunderground v.1.15,2013-12-30 00:30:00,
2013-12-29 19:40:00,40.1,39.1,29.61,WNW,298,1.0,1.0,96,0.00,,,0.85,Wunderground v.1.15,2013-12-30 00:40:00,
2013-12-29 19:50:00,40.1,38.8,29.62,NW,304,0.0,0.0,95,0.00,,,0.85,Wunderground v.1.15,2013-12-30 00:50:00,
2013-12-29 20:00:00,40.0,38.7,29.62,WNW,300,0.0,0.0,95,0.00,,,0.85,Wunderground v.1.15,2013-12-30 01:00:00,
2013-12-29 20:10:00,39.8,38.5,29.63,WNW,300,0.0,0.0,95,0.00,,,0.85,Wunderground v.1.15,2013-12-30 01:10:00,
2013-12-29 20:15:00,39.8,38.8,29.64,WNW,300,0.0,0.0,96,0.00,,,0.85,Wunderground v.1.15,2013-12-30 01:15:00,
2013-12-29 20:24:00,39.7,38.7,29.65,WNW,300,0.0,0.0,96,0.00,,,0.85,Wunderground v.1.15,2013-12-30 01:24:00,
2013-12-29 20:30:00,39.7,38.7,29.65,WNW,300,0.0,0.0,96,0.00,,,0.85,Wunderground v.1.15,2013-12-30 01:30:00,
2013-12-29 20:40:00,39.7,38.7,29.65,WNW,300,0.0,0.0,96,0.00,,,0.85,Wunderground v.1.15,2013-12-30 01:40:00,
2013-12-29 20:50:00,39.6,38.6,29.65,WNW,300,0.0,2.0,96,0.00,,,0.85,Wunderground v.1.15,2013-12-30 01:50:00,
2013-12-29 20:55:00,39.5,38.5,29.65,WNW,300,0.0,2.0,96,0.00,,,0.85,Wunderground v.1.15,2013-12-30 01:55:00,
2013-12-29 21:05:00,39.3,38.3,29.65,West,281,1.0,1.0,96,0.00,,,0.85,Wunderground v.1.15,2013-12-30 02:05:00,
2013-12-29 21:19:00,39.7,38.4,29.66,West,281,1.0,1.0,95,0.00,,,0.85,Wunderground v.1.15,2013-12-30 02:19:00,
2013-12-29 21:25:00,39.7,38.1,29.67,West,281,1.0,1.0,94,0.00,,,0.85,Wunderground v.1.15,2013-12-30 02:25:00,
2013-12-29 21:30:00,39.7,37.8,29.68,West,279,1.0,2.0,93,0.00,,,0.85,Wunderground v.1.15,2013-12-30 02:30:00,
2013-12-29 21:39:00,39.6,37.7,29.69,West,279,2.0,2.0,93,0.00,,,0.85,Wunderground v.1.15,2013-12-30 02:39:00,
2013-12-29 21:50:00,39.8,37.9,29.70,West,275,1.0,2.0,93,0.00,,,0.85,Wunderground v.1.15,2013-12-30 02:50:00,
2013-12-29 22:04:00,40.0,37.9,29.69,West,275,1.0,2.0,92,0.00,,,0.86,Wunderground v.1.15,2013-12-30 03:04:00,
2013-12-29 22:19:00,39.7,37.6,29.69,West,275,0.0,0.0,92,0.00,,,0.86,Wunderground v.1.15,2013-12-30 03:19:00,
2013-12-29 22:24:00,39.6,37.5,29.69,West,275,0.0,0.0,92,0.00,,,0.86,Wunderground v.1.15,2013-12-30 03:24:00,
2013-12-29 22:30:00,39.3,37.2,29.70,West,275,0.0,0.0,92,0.00,,,0.86,Wunderground v.1.15,2013-12-30 03:30:00,
2013-12-29 22:39:00,38.8,36.7,29.71,West,275,0.0,0.0,92,0.00,,,0.86,Wunderground v.1.15,2013-12-30 03:39:00,
2013-12-29 22:45:00,38.6,36.8,29.71,West,275,0.0,0.0,93,0.00,,,0.86,Wunderground v.1.15,2013-12-30 03:45:00,
2013-12-29 22:54:00,38.2,36.4,29.71,West,275,0.0,0.0,93,0.00,,,0.86,Wunderground v.1.15,2013-12-30 03:54:00,
2013-12-29 23:00:00,38.2,36.6,29.71,West,275,0.0,0.0,94,0.00,,,0.86,Wunderground v.1.15,2013-12-30 04:00:00,
2013-12-29 23:09:00,38.0,36.4,29.72,West,275,0.0,0.0,94,0.00,,,0.86,Wunderground v.1.15,2013-12-30 04:09:00,
2013-12-29 23:19:00,37.0,35.4,29.73,West,275,0.0,0.0,94,0.00,,,0.86,Wunderground v.1.15,2013-12-30 04:19:00,
2013-12-29 23:29:00,37.1,35.8,29.73,West,275,0.0,0.0,95,0.00,,,0.86,Wunderground v.1.15,2013-12-30 04:29:00,
2013-12-29 23:39:00,37.5,36.2,29.73,West,275,0.0,0.0,95,0.00,,,0.86,Wunderground v.1.15,2013-12-30 04:39:00,
2013-12-29 23:49:00,37.5,36.2,29.73,West,275,1.0,1.0,95,0.00,,,0.86,Wunderground v.1.15,2013-12-30 04:49:00,
2013-12-29 23:54:00,37.3,35.7,29.74,West,275,1.0,1.0,94,0.00,,,0.86,Wunderground v.1.15,2013-12-30 04:54:00,